CAPE
1722 1473 852 909 834 394 321 367 311 168 341 167 174 579 743 771 794 741 662 751 853 741 758 1271 1774 2029 1552 896 1790 2000 1885 1898 1894 1890 1934 2141 2289 2213 2163 2059 2234 2218 2150 2161 2200 1801 1625 1546 1849
1021 879 179 636 259 195 384 388 346 316 468 566 594 771 944 857 734 828 890 784 902 811 761 855 1768 1773 1424 1103 1549 2141 2226 2189 1950 1990 1915 2069 2216 2277 1842 1729 2187 2216 2272 2228 2117 1767 1370 1476 1713
352 349 378 288 119 153 191 450 643 558 593 629 596 689 716 527 747 1109 892 908 990 832 876 907 1608 1734 1553 1566 1651 2036 2078 1889 1736 1725 2020 2349 2306 2231 1537 1247 2346 2409 2366 2461 2072 2120 1266 1319 2047
377 590 546 5 4 212 109 392 587 542 728 656 588 837 640 766 1036 1074 952 1088 1126 1227 1115 696 1431 1513 1605 1733 1774 1938 1842 1987 2471 2518 2539 2561 2273 1788 1432 1258 1661 1719 1656 1736 2298 2320 2219 1361 1703
137 188 10 0 0 96 220 359 199 410 778 847 568 665 930 1297 1096 1036 947 1031 1187 1325 1231 1161 1753 1825 1837 1871 1902 1934 2104 2356 2369 2090 1918 1604 1325 1159 1246 1224 1309 1890 2057 2076 2247 2146 2131 1989 2020
18 83 4 0 0 28 157 445 422 420 565 582 573 759 1168 1291 1125 1059 1001 979 982 1057 1041 1343 1577 1714 1881 1831 1902 2150 2256 2332 2132 2075 2047 1667 1626 1634 1617 1547 1289 1255 1477 1754 1848 1931 1958 1939 1734
44 16 2 2 0 0 197 479 444 570 629 685 621 768 1305 1219 1136 1069 1184 1086 1009 801 588 743 1001 1495 1893 1906 2388 2385 2216 2244 1619 1269 642 602 421 540 802 1530 1685 1777 1746 1684 1608 1574 1562 1522 1402
31 36 10 0 0 18 418 543 625 739 850 913 965 839 986 1299 1143 1191 1104 1076 1079 713 509 623 744 865 966 1208 1787 1581 1794 1316 917 533 154 297 1 306 248 500 1006 1390 1363 1282 1142 1102 1248 1270 1217
3 26 9 11 4 99 413 317 699 935 955 1090 994 703 1002 1123 1152 1069 1063 912 953 618 498 533 626 804 724 1162 1446 1364 1392 1031 524 140 257 153 9 34 207 121 214 790 1068 1192 1196 1335 1605 1260 992
0 12 1 17 35 60 327 358 749 832 895 1164 813 978 1030 1107 1268 971 998 925 895 683 416 449 589 730 885 839 1258 1542 1492 1096 48 54 99 8 136 0 18 15 196 412 529 690 1187 1625 1486 597 613
1 11 13 45 77 258 241 601 676 397 338 756 934 1026 1026 1029 1050 915 893 837 633 615 439 439 564 785 855 1032 1303 1449 1355 888 230 8 0 0 0 41 0 0 146 477 697 482 479 637 343 392 473
0 6 22 77 208 290 249 660 743 318 370 583 793 968 945 958 895 810 775 696 616 508 504 412 698 914 897 978 1152 1292 1267 840 363 111 3 43 0 0 67 36 29 183 421 266 160 302 357 471 261
0 0 3 75 223 253 347 596 966 620 507 704 819 875 792 747 757 681 663 625 694 535 478 546 687 990 1028 1137 886 1192 1292 245 44 131 1 121 92 12 0 113 142 113 14 21 39 134 281 133 113
0 0 9 127 272 286 410 614 897 1014 552 665 747 786 779 734 735 762 821 857 922 876 655 505 733 897 1044 1080 1091 1129 1285 227 2 15 240 8 341 147 50 131 249 349 265 114 90 133 234 64 32
0 0 9 72 245 322 364 343 502 1106 643 658 710 757 845 961 893 971 1058 1206 1294 1345 1317 1026 666 770 1059 1109 1138 1134 886 483 11 17 35 70 420 381 71 507 279 540 549 313 58 150 230 81 18
0 0 15 19 192 326 245 110 985 1207 850 675 632 746 875 1041 1108 1248 1305 1287 1263 1372 1432 1526 1154 799 911 1017 1072 980 1091 567 227 69 39 73 181 571 666 658 648 359 676 710 218 71 47 0 0
0 7 0 2 39 62 73 51 667 1261 1157 710 679 643 778 914 1229 1414 1517 1562 1558 1546 1531 1503 1426 1169 1199 1317 1099 1216 262 744 578 664 349 157 203 682 741 596 637 903 194 617 510 337 90 14 34
2 10 0 0 9 81 46 18 505 1079 1251 1110 700 612 731 767 1014 1321 1493 1515 1551 1709 1871 2022 1764 1576 1451 1606 1560 1338 932 1065 967 693 756 775 169 157 419 139 572 784 99 525 607 803 936 723 460
0 0 0 0 0 59 66 26 124 783 943 1026 1083 729 720 719 1096 1288 1429 1473 1504 1554 1833 2003 2235 2227 2142 2082 1825 1613 1550 1526 1653 1221 985 681 731 215 335 454 389 438 351 743 761 918 761 657 641
0 0 0 0 0 46 23 4 46 226 684 734 805 1163 913 933 1296 773 39 111 1256 1704 1806 1994 2275 2453 2565 2256 2101 1948 1972 1813 1771 1788 1678 1488 1004 830 567 670 847 467 728 746 733 609 772 690 475
4 1 0 1 0 0 0 0 22 187 404 804 781 935 1166 1247 702 67 0 6 71 1021 1687 1906 2201 2473 2595 2432 2131 2179 2077 1938 1838 1722 1824 1636 1442 1051 771 646 970 836 938 593 523 153 830 837 660
26 0 0 0 0 3 0 3 4 136 246 584 842 969 1108 1274 510 100 0 0 155 710 1369 1752 2102 2321 2416 2489 2058 2057 1883 1759 1664 1572 1870 1962 1789 1433 1254 1031 1195 1139 1053 675 395 793 466 871 641
2 0 0 0 0 0 0 0 102 165 472 823 1121 1140 833 1175 1166 581 173 305 223 1054 1285 1492 1832 2060 2252 2164 2183 2009 2058 1613 1744 1944 1939 1769 2058 2085 1785 1513 1443 1397 1227 849 671 658 714 709 700
0 0 0 0 0 7 0 1 42 284 450 457 836 1233 892 1065 1422 1355 1239 1274 1419 1315 1217 1303 1749 2054 2290 2320 2193 2224 2150 1984 1963 2053 2015 1934 1804 1925 1871 1788 1750 1553 1570 1309 1145 1024 910 928 694
0 12 10 22 21 48 13 50 294 383 357 346 719 1373 1290 1312 1450 1537 1537 1621 1709 1655 1558 1571 1947 2445 2499 2383 2207 2108 2108 2220 2159 1727 1305 1404 1429 1691 1912 2058 1880 1746 1647 1620 1492 1315 1159 878 813
8 18 30 23 6 27 87 110 397 485 655 722 1170 1316 1452 1586 1705 1661 1622 1649 1276 1611 2074 2071 2310 2415 2569 2384 2282 2201 1758 1014 260 375 807 1242 1398 1743 1995 2474 2207 2001 1895 1996 1908 1631 1466 1048 877
3 0 0 0 0 0 109 90 273 403 604 882 1438 1637 1651 1806 2114 2148 1651 1598 1809 1206 1210 1622 2434 2828 2755 2412 1967 1184 828 654 527 557 983 911 1341 1837 2346 2186 2136 2142 2314 2244 2020 1766 1550 1290 1207
0 0 4 0 23 5 83 53 73 551 666 981 1509 1680 1650 1624 1574 1670 1803 1826 1503 1333 1390 1840 2365 2347 2034 1511 1268 1198 1237 732 850 810 632 947 1361 2156 2542 2553 2286 2469 2505 2361 2035 1715 1671 1682 1360
0 0 0 3 0 33 59 116 449 608 691 818 1597 1598 1404 1891 1942 1606 1749 1896 1983 1729 1459 1253 1638 1911 1835 1745 1822 1705 1463 1643 2059 1980 1904 2131 2415 2749 2961 2868 2705 2567 2427 2263 2033 1986 1739 1568 1486
0 30 24 57 127 52 36 124 621 653 507 928 1592 1463 920 1499 1961 1876 1595 1252 1393 1466 1630 1537 1547 1386 1240 1364 1421 924 1299 1698 1572 1453 1071 1158 1946 3043 3175 2960 2675 2386 2293 2112 1608 1459 1576 1633 1312
CIN
-151 -141 -190 -150 -12 -4 -2 -1 -4 -3 -2 -4 -12 -2 -4 -26 -4 -6 -2 -3 -2 -4 -6 -1 0 0 -10 -30 -4 0 0 0 -1 0 0 0 0 0 0 0 0 0 0 0 0 -4 -7 -13 -1
-179 -243 -254 -55 -18 -18 -1 -1 -1 -2 -2 -2 -1 0 -1 -3 -36 -27 -5 -2 -2 -3 -2 -3 0 -4 -17 -29 -10 0 0 0 0 0 0 0 0 0 0 -1 0 0 0 0 0 -5 -18 -20 -5
-282 -277 -39 -14 -54 -23 -18 -1 -2 -1 -1 -2 -11 -16 -10 -33 -18 -9 -11 -4 -1 -2 -1 -9 -3 -5 -9 -6 -5 0 0 0 0 -1 0 -1 0 0 0 -9 0 0 0 0 0 0 -28 -25 -1
-147 -70 -19 -3 -1 -5 -45 -2 -1 -1 -2 -7 -2 -14 -42 -17 -3 -18 -15 -1 0 -1 -1 -48 -4 -4 -5 -2 -5 0 0 0 0 0 0 0 0 0 -1 -7 0 0 0 -2 0 0 0 -25 -8
-125 -19 -2 0 0 -23 -3 -2 -8 -2 -3 -1 -2 -12 -11 -1 -10 -20 -15 -2 -2 -1 0 -1 0 0 0 0 0 0 0 0 -1 -1 -1 -2 -6 -1 -4 -9 0 0 0 0 0 0 0 -2 -2
-46 -42 -2 -1 0 -49 -7 -1 -1 -1 -3 -10 -16 -25 -1 -1 -8 -8 -6 -2 -2 -2 -2 0 -2 -2 -1 0 0 0 0 0 0 0 0 -2 -1 0 0 -1 -1 -9 -6 0 -1 0 0 0 -3
-76 -3 -1 -1 -1 0 -13 -1 -1 -2 -1 -2 -2 -9 -1 -2 -2 -6 -1 -1 -4 -5 -13 -18 -7 -1 -2 0 0 0 0 0 -3 -3 -6 -4 -2 -3 -6 0 0 0 0 0 -6 -9 -1 -2 -8
-90 -62 -2 0 0 -4 -22 -14 -4 0 -2 -10 -2 -11 -21 -14 -9 -1 -3 -2 -5 -12 -28 -19 -13 -6 -3 0 -4 -2 -1 -7 -4 -6 -16 -10 -114 -15 -5 -2 -1 0 0 -2 -12 -20 -18 -10 -9
-72 -3 -5 -3 -2 -37 -31 -26 -34 -13 -6 -14 -14 -10 -29 -61 -30 -12 -9 -11 -8 -21 -26 -15 -10 -4 -1 -1 -1 -3 -6 -4 -32 -55 -3 -6 -21 -28 -15 -15 -11 -2 -1 0 -5 -3 -2 -14 -20
-9 -2 0 -9 -1 -13 -27 -24 -41 -15 -13 -13 -47 -46 -58 -60 -36 -28 -23 -22 -18 -21 -36 -19 -2 -2 0 -2 -1 -1 -1 -1 -62 -68 -33 -40 -13 0 -47 -24 -11 -7 -8 -4 -3 0 -5 -33 -2
-2 -2 -8 -13 -47 -15 -34 -41 -46 -9 -33 -44 -57 -66 -52 -45 -31 -20 -17 -9 -22 -33 -34 -23 -18 -3 -1 -1 -3 -2 -3 -6 -30 -69 0 0 -2 -24 0 -2 -11 -8 -3 -1 -11 -5 -7 -1 -1
0 -29 -20 -39 -30 -27 -19 -34 -47 -61 -74 -97 -114 -84 -62 -35 -22 -20 -18 -28 -41 -51 -41 -41 -18 -8 -2 -1 -2 0 -4 -20 -5 -13 -62 -11 -3 0 -1 -5 -27 -3 -3 -4 -1 -1 -1 0 -11
0 0 -8 -63 -33 -29 -39 -26 -38 -82 -115 -122 -143 -111 -62 -22 -18 -22 -13 -20 -33 -43 -52 -44 -35 -19 -5 -1 -1 -3 -16 -59 -55 -6 -27 0 -6 -13 0 -1 -1 -1 -32 -32 -24 -1 -1 -6 -15
0 0 -10 -37 -37 -37 -29 -47 -31 -89 -142 -140 -143 -115 -56 -16 -15 -19 -21 -31 -33 -31 -43 -58 -51 -43 -15 -5 -3 -5 -10 -56 -102 -64 -7 -57 0 -6 -25 -7 -2 0 -1 -9 -16 -7 -1 -16 -43
0 0 -4 -55 -25 -25 -36 -39 -16 -80 -131 -129 -119 -103 -72 -14 -12 -11 -14 -10 -12 -5 -4 -24 -53 -36 -27 -6 -1 -2 -5 -41 -143 -120 -79 -26 -1 0 -17 0 -10 0 0 -1 -49 -22 -6 -38 -68
0 0 -2 -13 -27 -28 -27 -9 -52 -90 -83 -99 -101 -94 -79 -38 -14 -15 -16 -8 -5 -4 -14 -21 -31 -35 -38 -23 -10 -4 -1 -21 -23 -78 -92 -68 -16 0 0 -1 -1 -1 0 0 -9 -27 -36 0 0
0 -2 -1 -1 -40 -16 -20 -4 -56 -76 -61 -62 -80 -72 -72 -49 -24 -14 -16 -20 -16 -21 -38 -55 -40 -24 -28 -27 -41 -23 -110 -41 -21 -10 -24 -106 -83 -4 0 -1 -2 0 -27 0 -4 -3 -17 -17 -47
-2 -4 0 -1 -10 -70 -9 -4 -58 -74 -48 -39 -49 -49 -44 -26 -16 -22 -17 -21 -13 -18 -22 -24 -23 -38 -35 -17 -28 -27 -36 -31 -26 -41 -14 -27 -87 -86 -21 -83 -5 0 -51 -1 -1 -1 0 -2 -5
0 0 0 0 0 -22 -8 -7 -27 -74 -62 -46 -25 -34 -16 -5 -5 -14 -37 -17 -18 -23 -27 -38 -42 -25 -26 -29 -21 -10 -5 -4 -3 -33 -48 -58 -52 -74 -36 -23 -22 -6 -11 0 -1 0 0 -1 0
0 0 0 0 -1 -18 -10 -5 -20 -57 -62 -65 -39 -7 -5 -3 -43 -129 -264 -179 -38 -30 -42 -45 -63 -55 -43 -22 -18 -10 -1 -2 -1 -1 -8 -31 -56 -43 -42 -15 -1 -15 -1 -1 0 0 0 -5 -12
-3 -2 0 0 0 0 0 0 -23 -106 -110 -92 -72 -34 -4 -8 -110 -166 0 -229 -217 -74 -42 -53 -68 -62 -59 -47 -44 -39 -20 -17 -13 -9 -2 -8 -25 -40 -48 -46 -13 -1 0 -3 -2 -38 0 -1 -2
-5 0 0 0 0 -2 0 -3 -15 -58 -53 -103 -67 -61 -38 -27 -198 -239 0 0 -182 -111 -60 -63 -92 -82 -74 -52 -54 -46 -48 -42 -21 -19 -1 -1 -15 -25 -24 -29 -13 -6 -1 -10 -27 0 -16 -1 -1
-22 0 0 0 0 0 0 0 -21 -21 -22 -51 -79 -105 -70 -31 -191 -164 -174 -174 -156 -142 -106 -124 -142 -147 -122 -87 -76 -52 -49 -42 -28 -2 -14 -8 -1 -1 -12 -21 -7 0 -1 -4 -9 -11 -1 -4 -4
0 0 0 0 0 -6 0 -3 -8 -12 -35 -59 -81 -123 -104 -58 -113 -119 -128 -116 -109 -114 -125 -122 -147 -159 -130 -88 -60 -40 -28 -29 -16 -2 -1 -1 -3 -5 -15 -12 -9 -3 0 0 0 -1 -1 -1 -3
0 -5 -7 -5 -4 -6 -18 -15 -10 -35 -85 -105 -89 -96 -118 -109 -95 -98 -98 -84 -89 -101 -107 -101 -110 -104 -92 -65 -43 -33 -17 -4 -11 -26 -5 -1 -7 -1 -1 -8 -15 -14 -17 -1 0 -1 0 -5 -2
-6 -3 -6 -2 -3 -6 -14 -2 -3 -48 -111 -133 -113 -90 -93 -91 -87 -85 -77 -68 -110 -109 -109 -103 -86 -83 -62 -68 -63 -52 -58 -82 -138 -103 -53 -6 -1 -1 -1 0 -9 -14 -6 -1 0 0 -1 -3 -11
-1 0 0 0 0 0 -4 -4 -16 -59 -67 -110 -103 -89 -88 -68 -70 -105 -155 -127 -94 -141 -121 -112 -78 -54 -49 -47 -75 -135 -127 -127 -107 -108 -67 -57 -20 -3 -1 -10 -12 -10 -2 0 0 0 -1 -1 -1
0 0 -2 0 -3 -4 -5 -4 -6 -22 -41 -99 -78 -74 -103 -105 -115 -124 -124 -122 -137 -123 -117 -105 -86 -79 -88 -94 -79 -62 -55 -110 -87 -93 -103 -58 -30 -4 0 0 -8 -4 0 0 -2 -1 0 0 -1
0 0 0 -1 0 -5 -5 -4 -31 -41 -51 -71 -81 -88 -95 -83 -73 -93 -100 -94 -71 -83 -104 -135 -100 -64 -56 -41 -31 -35 -36 -25 -15 -18 -19 -14 -4 -2 0 0 0 0 0 0 -2 0 -1 -1 -1
0 -3 -3 -6 -15 -5 -15 -7 -129 -130 -87 -83 -86 -94 -143 -89 -43 -43 -77 -125 -108 -112 -102 -98 -85 -93 -77 -45 -35 -19 -17 -19 -15 -12 -13 -11 -9 -1 0 -2 0 0 0 -5 -21 -16 0 -1 -8
Wind_Speed
22 20 17 17 20 23 25 22 22 23 22 22 20 18 19 16 15 15 19 19 23 22 22 22 24 25 26 26 26 24 26 26 26 26 25 24 24 22 20 21 22 22 21 19 16 16 15 14 14
20 19 18 18 22 23 24 23 22 23 22 22 22 20 18 18 17 19 17 22 22 23 23 22 22 22 23 24 24 24 25 25 25 25 25 24 22 19 19 19 21 21 20 18 17 15 15 13 12
18 18 16 20 24 24 23 22 22 23 21 19 20 19 16 17 19 15 22 24 22 22 20 18 19 19 20 20 20 22 23 24 24 24 24 23 22 19 18 19 20 20 20 19 17 15 14 12 11
16 20 20 28 27 26 25 22 22 21 24 23 22 21 23 20 22 23 25 24 23 22 20 20 19 19 20 20 18 20 23 24 25 24 23 23 22 20 18 18 19 19 19 18 15 13 13 13 11
18 17 28 30 29 27 25 24 24 23 23 23 19 24 26 23 25 28 26 25 25 23 21 21 19 20 20 21 20 21 21 22 20 19 20 22 21 20 19 18 18 17 16 16 14 12 11 11 11
20 18 28 30 29 27 25 23 24 24 25 26 26 25 23 25 27 27 26 25 23 23 24 20 19 18 18 18 18 18 18 19 18 18 19 18 19 21 20 18 18 17 16 14 12 11 11 11 11
23 27 29 29 29 29 26 19 24 24 24 24 23 22 22 25 26 27 25 24 23 23 21 21 20 17 16 17 17 17 17 17 15 14 12 10 11 16 21 17 15 14 13 12 11 11 11 12 16
20 21 30 31 31 30 24 23 24 21 25 23 19 20 23 25 27 26 24 23 22 24 22 21 18 17 16 14 13 13 14 12 8 11 11 11 14 18 18 19 13 15 12 10 10 10 11 18 17
17 25 29 30 31 30 26 28 25 24 26 25 21 24 25 28 28 27 25 24 22 23 23 22 21 18 16 13 11 11 10 9 8 11 16 14 14 19 19 19 19 20 19 9 11 3 20 19 16
19 25 27 24 26 28 26 25 28 26 26 26 28 27 28 28 28 27 26 25 25 24 23 22 21 19 16 16 12 12 9 8 9 14 4 12 19 19 21 21 21 21 22 22 22 22 21 19 17
21 23 23 24 13 20 25 28 25 24 25 24 27 29 29 29 27 26 25 25 25 24 22 20 19 18 18 16 13 12 10 9 14 15 16 16 18 18 21 24 20 22 22 24 14 19 21 20 20
20 19 16 10 20 21 23 25 29 12 27 29 30 30 28 27 26 25 25 24 24 23 21 19 17 16 17 14 14 14 9 13 17 16 15 17 15 18 19 21 19 16 19 24 27 26 25 23 20
19 19 17 11 21 22 22 20 25 25 29 31 30 29 28 27 25 25 25 24 23 22 21 20 19 17 16 16 14 10 10 17 17 19 18 17 17 14 18 20 22 14 14 18 26 25 27 24 24
16 18 19 20 20 20 19 22 17 22 27 28 28 27 27 26 26 27 25 24 23 22 21 21 19 17 17 16 15 11 20 18 16 20 18 16 14 13 19 19 15 18 15 18 17 23 25 23 25
16 17 18 18 18 17 18 20 17 23 24 25 25 25 25 25 26 25 24 23 22 21 21 20 19 19 17 16 13 11 14 11 16 15 16 15 15 13 17 19 10 13 13 14 15 16 16 22 23
16 16 16 16 16 15 16 19 20 22 22 21 22 23 23 24 24 23 22 21 20 20 20 20 20 19 18 17 16 13 13 14 11 12 10 14 14 15 17 21 15 14 15 6 13 10 16 20 21
14 16 16 15 15 13 15 17 17 20 20 18 19 20 21 21 22 20 20 20 19 19 19 19 18 18 18 17 16 14 14 13 12 13 15 12 11 11 14 15 3 10 10 21 16 9 10 17 23
13 13 14 11 14 15 16 12 15 16 17 17 16 16 18 19 18 19 17 17 18 18 18 18 17 17 17 17 16 15 13 12 12 11 11 9 9 9 7 8 4 3 7 22 13 5 10 25 25
18 11 13 13 13 14 14 15 13 12 14 14 15 14 15 15 14 15 13 16 17 17 17 17 16 16 16 15 14 13 13 13 12 11 10 10 9 10 10 9 12 18 12 13 1 6 6 6 5
14 15 14 15 14 13 13 10 12 12 10 12 13 12 13 14 14 15 15 17 18 16 16 16 16 15 15 13 13 11 9 10 9 9 9 10 10 11 11 11 12 14 12 8 9 13 9 11 20
8 12 13 14 15 13 12 8 10 13 14 10 12 10 11 12 14 16 17 20 16 15 15 14 14 14 14 14 11 9 8 7 7 8 8 9 10 11 12 11 11 10 10 8 6 4 5 6 7
5 10 12 13 10 18 13 16 12 13 16 14 12 10 10 11 13 16 16 17 13 13 13 13 14 13 12 9 9 7 8 7 6 7 8 8 8 10 11 11 11 10 9 8 7 4 6 3 3
13 10 12 14 15 7 13 10 13 14 15 15 15 12 7 11 13 16 16 13 11 9 11 11 11 10 7 6 7 6 7 10 7 5 6 7 6 8 9 10 10 8 7 6 8 7 5 2 1
10 10 12 14 17 12 15 12 12 16 17 16 16 15 12 8 10 14 17 13 12 11 11 12 11 10 8 6 4 5 7 9 8 5 8 5 6 5 7 8 7 6 5 6 6 5 7 4 1
10 8 14 15 11 15 15 12 18 16 16 17 16 13 13 12 10 9 7 8 10 12 13 13 13 12 13 12 9 7 5 4 4 5 4 3 2 3 3 4 6 5 3 4 3 4 5 6 6
11 22 20 18 17 13 13 14 13 15 17 16 14 13 15 16 14 13 10 11 10 11 13 15 16 17 17 17 15 14 12 11 11 8 9 6 6 7 6 2 0 2 4 2 1 1 1 3 4
11 14 20 22 15 18 12 13 10 13 14 14 13 11 12 13 12 14 15 11 11 10 12 16 18 20 21 19 18 17 16 15 15 13 12 11 10 11 10 6 5 6 4 4 2 2 3 3 3
22 15 13 11 13 15 12 15 19 13 11 11 11 10 10 11 10 12 14 14 14 13 14 17 18 21 23 23 22 21 19 16 16 15 12 14 17 16 16 14 11 12 11 10 8 8 7 7 8
11 10 17 19 19 20 17 13 15 14 12 9 9 9 9 9 11 11 12 13 13 13 15 18 19 22 25 25 25 24 23 21 18 16 15 16 16 18 19 18 18 17 17 16 15 14 15 12 11
18 16 13 15 9 14 22 21 17 16 11 10 8 7 8 10 10 11 11 12 13 15 17 19 22 25 26 27 27 24 23 22 21 20 21 22 22 20 18 18 19 20 20 19 18 19 18 16 14
Wind_Direction
91 99 118 126 96 47 32 21 53 45 42 37 62 62 31 349 334 45 81 79 95 94 91 89 91 96 99 101 101 97 103 107 108 110 106 101 100 89 81 84 87 84 75 65 53 51 50 49 47
95 98 109 97 85 44 34 38 23 30 49 60 43 62 32 24 19 75 72 95 96 97 98 92 91 94 96 101 102 99 104 106 105 109 109 107 95 77 77 82 89 86 79 67 58 51 50 44 39
106 100 108 92 30 34 44 44 35 39 64 65 56 18 6 37 72 61 92 98 94 96 93 89 90 89 90 92 94 96 102 106 110 113 114 109 102 80 78 78 83 83 77 73 64 52 45 36 27
99 93 96 40 46 53 44 54 49 58 54 57 69 42 94 69 118 93 100 98 99 100 94 97 94 94 94 94 92 96 106 112 112 108 109 107 99 87 76 79 84 81 79 71 53 44 36 35 25
90 99 63 52 46 51 49 49 52 45 44 69 105 68 81 73 91 103 106 106 106 100 99 101 97 100 101 104 101 103 106 107 102 96 100 110 102 95 86 84 85 75 67 66 52 39 26 23 19
90 104 55 46 51 54 49 80 59 43 62 59 67 73 72 94 105 108 110 109 100 103 108 97 99 97 97 98 99 99 99 104 98 98 102 94 93 102 99 89 91 85 80 67 48 24 16 356 334
82 70 58 56 56 51 50 111 68 52 72 47 86 82 83 100 110 113 109 107 105 105 101 103 103 94 93 98 96 95 99 100 88 68 45 24 319 145 124 89 71 72 59 52 37 16 0 309 245
107 98 58 54 52 51 79 94 89 93 68 77 106 104 105 109 115 117 111 108 106 120 111 108 100 100 99 93 88 85 80 69 356 16 327 354 69 208 205 138 61 92 64 29 8 11 19 228 245
132 79 63 56 48 57 92 61 86 89 85 75 97 90 105 115 118 122 115 119 115 123 123 121 116 109 107 89 81 76 65 27 351 352 283 306 118 151 192 204 181 195 202 19 325 300 224 216 166
109 76 62 69 59 63 87 92 81 86 84 89 76 80 105 115 122 126 127 129 134 132 133 128 126 116 108 114 86 95 53 25 68 119 179 251 192 181 224 232 204 205 220 235 233 225 219 201 201
98 82 78 65 149 115 91 82 91 96 88 96 97 100 112 122 128 131 134 138 140 137 135 128 127 124 122 118 95 103 74 64 123 138 153 162 176 181 201 236 220 220 197 216 155 173 194 222 215
99 95 124 138 110 115 105 95 82 122 89 92 102 105 111 119 127 133 137 139 142 141 138 133 126 124 132 114 118 127 66 127 155 157 153 170 163 191 193 215 200 177 190 207 225 235 241 227 203
95 97 124 192 116 117 120 114 94 103 86 90 97 105 108 115 122 133 138 138 144 143 143 142 137 133 133 138 130 97 121 168 179 189 185 185 187 172 194 204 216 171 169 187 214 203 227 218 228
105 107 118 111 119 133 121 104 134 112 97 94 96 100 109 113 121 131 138 137 138 140 144 144 141 136 140 140 141 112 196 176 193 202 193 189 184 181 200 203 185 196 180 185 179 186 197 197 242
113 106 100 112 98 101 149 116 133 102 103 99 105 105 108 117 127 131 141 141 137 139 139 141 143 142 139 137 132 134 160 155 177 173 187 192 188 177 191 199 149 173 164 172 171 161 167 192 210
106 105 103 86 108 102 166 57 86 111 109 100 109 111 109 118 129 129 137 147 147 150 148 149 147 145 140 136 134 116 141 152 144 159 148 181 188 189 192 210 187 179 213 77 162 135 164 184 196
108 48 77 83 117 106 143 48 85 122 129 107 108 113 115 118 131 128 134 144 153 153 155 156 154 151 148 141 139 139 134 146 147 164 183 165 169 176 184 187 100 343 347 214 172 244 154 182 203
64 47 61 132 59 132 137 109 59 118 132 129 112 105 115 118 112 119 135 150 159 165 161 164 161 157 152 152 146 151 158 155 157 157 163 143 154 153 138 164 263 82 135 203 164 1 305 212 212
232 145 45 48 83 104 126 164 38 82 129 131 127 108 105 98 84 78 105 179 166 167 169 167 163 163 155 144 138 145 156 156 152 158 163 165 158 151 146 147 165 183 155 162 270 355 355 346 349
171 328 20 37 68 94 70 105 53 42 103 141 131 116 111 99 82 78 23 196 184 165 172 169 169 159 155 148 153 143 122 135 144 145 135 139 148 152 148 150 148 155 153 145 341 317 341 324 283
64 358 22 25 75 71 53 112 73 26 23 80 123 112 112 109 109 102 123 165 158 167 170 171 170 171 168 169 151 125 108 95 117 131 138 143 146 156 155 150 147 146 144 130 125 18 134 6 354
5 348 15 26 86 4 35 9 43 24 15 22 70 99 129 124 127 138 143 149 115 137 160 170 176 170 168 150 161 150 155 149 96 152 144 125 132 148 153 153 150 148 145 146 124 62 141 70 77
326 332 338 354 2 109 50 47 36 24 18 8 10 40 91 141 144 160 163 142 134 114 144 137 132 145 120 122 165 167 176 190 170 134 159 164 139 149 149 149 152 142 143 140 151 132 134 13 351
318 339 338 343 339 354 10 35 34 344 342 344 357 15 44 87 122 150 169 163 165 140 122 106 102 83 69 90 101 161 181 188 192 182 200 174 155 139 153 145 139 133 133 142 144 147 153 143 12
309 328 321 329 344 343 12 24 351 348 336 334 346 17 41 61 74 86 81 99 92 78 82 88 81 61 45 39 47 47 66 121 169 201 213 165 92 81 124 130 144 145 128 138 111 136 163 170 172
301 288 298 314 315 335 10 347 4 352 349 357 4 35 60 75 71 71 43 337 4 20 48 60 51 41 35 27 23 19 12 13 9 17 23 26 10 0 357 340 224 159 162 129 144 17 9 166 193
309 307 297 298 322 313 350 358 21 7 5 16 14 29 42 52 50 54 53 353 2 354 359 20 22 17 19 19 14 7 1 355 357 359 2 357 347 344 341 336 318 316 313 315 308 286 301 284 289
271 292 327 338 322 319 344 336 329 3 15 20 26 31 53 51 31 39 40 35 49 45 354 9 14 8 6 5 360 354 353 358 355 354 351 342 332 329 328 327 325 322 318 312 308 302 303 298 303
288 299 288 295 304 312 327 349 351 352 360 29 28 39 35 39 41 32 20 20 14 10 2 1 2 1 359 357 353 348 346 350 352 354 352 348 341 333 326 321 316 317 315 314 310 305 305 301 306
258 280 303 318 354 329 311 317 347 350 3 9 19 35 16 8 19 21 10 5 0 354 352 360 354 352 353 350 347 344 345 347 346 346 344 341 337 333 331 326 321 317 312 310 309 305 302 297 297